2020-085Z

Last updated on Fri Dec 04 2020 00:02:04 GMT+0000 (Coordinated Universal Time)

1 46952U 20085Z 20338.28953369 .00010447 00000-0 48111-3 0 9996 2 46952 97.3712 112.6389 0014259 262.5456 97.4168 15.20391475 2002
UTC large
Height (km)
Speed (km/s)
/
Latitude / Longitude
Inclination (degrees)
Orbital Period (minutes)
Azimuth
Elevation
Range (km)
Doppler Factor

Next 0 passes for location: London (51.5072 / 0.1276)

Sorry there are no passes over London.